DW1347 Weather Reports


time (UTC)temp
F
wind
direction
speed
knots
gust
knots
rain 1hr
in
rain 24hr
in
rain mn
in
humidity
%
barometer
mb
20200922210211 71 303 6.1 7.0 0.00 0.00 0.00 26 1030.4
20200922205708 73 235 4.3 6.1 0.00 0.00 0.00 24 1030.4
20200922205211 75 252 0.9 1.7 0.00 0.00 0.00 22 1030.2
20200922204704 74 343 3.5 4.3 0.00 0.00 0.00 22 1030.3
20200922204203 74 250 0.0 0.9 0.00 0.00 0.00 24 1030.3
20200922203700 75 220 0.9 0.9 0.00 0.00 0.00 24 1030.4
20200922203201 73 319 0.9 0.9 0.00 0.00 0.00 25 1030.3
20200922202659 72 261 0.0 0.9 0.00 0.00 0.00 24 1030.3
20200922202154 73 300 2.6 2.6 0.00 0.00 0.00 24 1030.4
20200922201653 72 137 0.9 1.7 0.00 0.00 0.00 25 1030.4
20200922201150 71 341 2.6 2.6 0.00 0.00 0.00 26 1030.5
20200922200649 70 232 1.7 2.6 0.00 0.00 0.00 26 1030.5
20200922200144 69 273 1.7 1.7 0.00 0.00 0.00 28 1030.9
20200922195640 69 235 1.7 2.6 0.00 0.00 0.00 26 1031.2
20200922195137 70 262 2.6 2.6 0.00 0.00 0.00 26 1031.0
20200922194637 70 249 0.9 0.9 0.00 0.00 0.00 25 1031.0
20200922194133 71 274 1.7 1.7 0.00 0.00 0.00 25 1031.0
20200922193633 72 251 0.0 0.9 0.00 0.00 0.00 25 1031.2
20200922193125 73 293 0.0 0.9 0.00 0.00 0.00 25 1031.4
20200922192622 71 243 1.7 2.6 0.00 0.00 0.00 25 1031.2
20200922192121 71 257 3.5 5.2 0.00 0.00 0.00 26 1031.3
20200922191615 71 163 1.7 2.6 0.00 0.00 0.00 26 1031.5
20200922191112 69 218 0.9 1.7 0.00 0.00 0.00 28 1031.7
20200922190610 67 111 2.6 2.6 0.00 0.00 0.00 30 1031.8
20200922190110 65 188 0.9 0.9 0.00 0.00 0.00 32 1031.9
20200922185608 64 255 1.7 1.7 0.00 0.00 0.00 33 1032.2
20200922185106 64 139 0.9 2.6 0.00 0.00 0.00 35 1031.9
20200922184613 64 76 2.6 7.0 0.00 0.00 0.00 34 1032.1
20200922184100 65 267 0.0 0.9 0.00 0.00 0.00 33 1032.1
20200922183559 65 234 0.9 0.9 0.00 0.00 0.00 32 1031.9
20200922183050 65 245 0.9 1.7 0.00 0.00 0.00 32 1031.9
20200922182549 66 241 1.7 2.6 0.00 0.00 0.00 30 1031.9
20200922182046 66 196 2.6 2.6 0.00 0.00 0.00 28 1031.8
20200922181558 67 182 2.6 2.6 0.00 0.00 0.00 27 1031.5
20200922181041 67 278 3.5 7.0 0.00 0.00 0.00 27 1031.8
20200922180530 67 285 2.6 4.3 0.00 0.00 0.00 27 1031.7
20200922180026 66 173 6.1 7.0 0.00 0.00 0.00 28 1031.8
20200922175534 66 229 3.5 4.3 0.00 0.00 0.00 30 1032.1
20200922175022 66 260 1.7 2.6 0.00 0.00 0.00 30 1031.9
20200922174528 67 213 2.6 5.2 0.00 0.00 0.00 29 1032.2
20200922174021 69 232 2.6 5.2 0.00 0.00 0.00 27 1032.3
20200922173510 70 265 0.0 0.0 0.00 0.00 0.00 23 1031.5
20200922173027 70 245 0.9 0.9 0.00 0.00 0.00 24 1031.8
20200922172506 71 248 0.9 0.9 0.00 0.00 0.00 24 1031.7
20200922172001 71 239 0.9 1.7 0.00 0.00 0.00 24 1031.4
20200922171454 72 258 2.6 2.6 0.00 0.00 0.00 23 1031.7
20200922170954 73 201 3.5 4.3 0.00 0.00 0.00 23 1031.7
20200922170455 74 304 2.6 2.6 0.00 0.00 0.00 22 1031.8
20200922165953 73 32 2.6 2.6 0.00 0.00 0.00 22 1031.9
20200922165443 72 246 0.9 1.7 0.00 0.00 0.00 22 1031.9
20200922164943 71 130 1.7 2.6 0.00 0.00 0.00 24 1031.9
20200922164443 72 321 2.6 4.3 0.00 0.00 0.00 24 1032.1
20200922163935 71 313 1.7 1.7 0.00 0.00 0.00 25 1031.9
20200922163431 71 283 0.0 0.0 0.00 0.00 0.00 26 1032.2
20200922162926 71 343 3.5 5.2 0.00 0.00 0.00 25 1032.1
20200922162417 70 227 0.9 0.9 0.00 0.00 0.00 26 1032.3
20200922161915 69 3 1.7 2.6 0.00 0.00 0.00 25 1032.3
20200922161411 70 294 2.6 2.6 0.00 0.00 0.00 26 1032.4
20200922160909 70 11 4.3 5.2 0.00 0.00 0.00 26 1032.6
20200922160405 70 288 0.9 1.7 0.00 0.00 0.00 27 1032.6
20200922155913 69 208 0.0 0.0 0.00 0.00 0.00 28 1032.6
20200922155401 69 10 0.9 0.9 0.00 0.00 0.00 27 1032.4
20200922154858 68 280 0.0 0.9 0.00 0.00 0.00 30 1032.6
20200922154358 68 329 0.9 0.9 0.00 0.00 0.00 32 1032.8
20200922153856 67 258 0.0 0.9 0.00 0.00 0.00 39 1032.4
20200922153352 67 233 0.0 0.0 0.00 0.00 0.00 35 1032.4
20200922152850 67 220 0.0 0.0 0.00 0.00 0.00 35 1032.7
20200922152349 64 218 0.0 0.0 0.00 0.00 0.00 37 1032.8
20200922151844 64 223 0.0 0.0 0.00 0.00 0.00 39 1032.4
20200922151343 62 238 0.0 0.0 0.00 0.00 0.00 40 1032.6
20200922150843 60 227 0.0 0.0 0.00 0.00 0.00 43 1032.6
20200922150332 58 224 0.0 0.0 0.00 0.00 0.00 46 1032.6
20200922145831 57 226 0.0 0.0 0.00 0.00 0.00 47 1032.7
20200922145332 54 229 0.0 0.0 0.00 0.00 0.00 53 1032.7
20200922144828 52 228 0.0 0.0 0.00 0.00 0.00 52 1032.7
20200922144332 50 241 0.0 0.0 0.00 0.00 0.00 55 1032.8
20200922143822 50 240 0.0 0.0 0.00 0.00 0.00 58 1032.8
20200922143317 49 240 0.0 0.0 0.00 0.00 0.00 55 1032.7
20200922142818 47 243 0.0 0.0 0.00 0.00 0.00 57 1032.8
20200922142311 47 242 0.0 0.0 0.00 0.00 0.00 59 1032.9
20200922141803 47 240 0.0 0.0 0.00 0.00 0.00 59 1032.8
20200922141259 46 239 0.0 0.0 0.00 0.00 0.00 58 1032.7
20200922140802 47 240 0.0 0.0 0.00 0.00 0.00 58 1032.8
20200922140254 47 218 0.0 0.0 0.00 0.00 0.00 57 1032.7
20200922135752 47 210 0.9 0.9 0.00 0.00 0.00 57 1032.7
20200922135259 47 241 0.0 0.0 0.00 0.00 0.00 57 1032.7
20200922134746 47 226 0.0 0.0 0.00 0.00 0.00 56 1032.7
20200922134242 47 209 0.9 0.9 0.00 0.00 0.00 57 1032.8
20200922133737 47 225 0.0 0.0 0.00 0.00 0.00 58 1032.8
20200922133237 47 241 0.0 0.0 0.00 0.00 0.00 56 1032.6
20200922132732 47 240 0.0 0.0 0.00 0.00 0.00 56 1032.8
20200922132227 47 232 0.0 0.0 0.00 0.00 0.00 55 1032.6
20200922131724 47 236 0.0 0.0 0.00 0.00 0.00 55 1032.4
20200922131228 47 205 0.0 0.9 0.00 0.00 0.00 54 1032.6
20200922130716 47 240 0.0 0.0 0.00 0.00 0.00 56 1032.4
20200922130211 47 225 0.0 0.0 0.00 0.00 0.00 57 1032.4
20200922125706 47 238 0.0 0.0 0.00 0.00 0.00 56 1032.4
20200922125207 46 216 0.9 0.9 0.00 0.00 0.00 56 1032.3
20200922124707 47 235 0.0 0.0 0.00 0.00 0.00 57 1032.4
20200922124203 46 225 0.9 0.9 0.00 0.00 0.00 57 1032.6
20200922123701 47 238 0.0 0.0 0.00 0.00 0.00 56 1032.4
20200922123156 47 219 0.9 0.9 0.00 0.00 0.00 56 1032.3
20200922122656 46 236 0.0 0.0 0.00 0.00 0.00 57 1032.8
20200922122146 46 238 0.0 0.0 0.00 0.00 0.00 58 1032.7
20200922121643 46 220 0.0 0.9 0.00 0.00 0.00 57 1032.4
20200922121143 46 241 0.0 0.0 0.00 0.00 0.00 58 1032.4
20200922120643 46 244 0.0 0.0 0.00 0.00 0.00 58 1032.2
20200922120140 46 197 0.9 0.9 0.00 0.00 0.00 58 1032.4
20200922115640 46 240 0.0 0.0 0.00 0.00 0.00 58 1032.3
20200922115136 45 211 0.9 0.9 0.00 0.00 0.00 59 1032.3
20200922114635 45 236 0.0 0.0 0.00 0.00 0.00 63 1032.6
20200922114129 44 255 0.0 0.0 0.00 0.00 0.00 62 1032.7
20200922113623 44 226 0.0 0.0 0.00 0.00 0.00 61 1032.4
20200922113122 44 246 0.0 0.0 0.00 0.00 0.00 62 1032.4
20200922112620 45 243 0.0 0.0 0.00 0.00 0.00 60 1032.3
20200922112119 45 234 0.0 0.0 0.00 0.00 0.00 60 1032.2
20200922111616 45 225 0.0 0.0 0.00 0.00 0.00 60 1032.2
20200922111118 45 234 0.0 0.0 0.00 0.00 0.00 60 1032.3
20200922110620 45 236 0.0 0.0 0.00 0.00 0.00 61 1032.1
20200922110112 45 242 0.0 0.0 0.00 0.00 0.00 60 1032.1
20200922105609 45 228 0.0 0.0 0.00 0.00 0.00 60 1032.3
20200922105104 45 257 0.0 0.0 0.00 0.00 0.00 61 1032.4
20200922104601 45 272 0.0 0.0 0.00 0.00 0.00 61 1031.9
20200922104112 45 216 0.0 0.9 0.00 0.00 0.00 61 1032.4
20200922103557 45 228 0.0 0.0 0.00 0.00 0.00 62 1032.3
20200922103054 45 235 0.0 0.0 0.00 0.00 0.00 61 1032.3
20200922102555 45 250 0.0 0.0 0.00 0.00 0.00 62 1032.3
20200922102051 45 235 0.0 0.0 0.00 0.00 0.00 61 1032.1
20200922101549 45 232 0.0 0.0 0.00 0.00 0.00 62 1032.2
20200922101043 45 245 0.0 0.0 0.00 0.00 0.00 62 1032.3
20200922100546 45 238 0.0 0.0 0.00 0.00 0.00 61 1032.2
20200922100034 44 237 0.0 0.0 0.00 0.00 0.00 63 1032.2
20200922095530 44 235 0.0 0.0 0.00 0.00 0.00 63 1032.3
20200922095026 45 236 0.0 0.0 0.00 0.00 0.00 62 1032.3
20200922094522 45 242 0.0 0.0 0.00 0.00 0.00 61 1032.3
20200922094021 45 234 0.0 0.0 0.00 0.00 0.00 61 1031.9
20200922093521 45 226 0.0 0.9 0.00 0.00 0.00 61 1032.1
20200922093024 45 236 0.0 0.0 0.00 0.00 0.00 62 1032.3
20200922092510 45 251 0.0 0.0 0.00 0.00 0.00 62 1032.3
20200922092011 46 245 0.0 0.0 0.00 0.00 0.00 60 1032.6
20200922091512 45 207 0.0 0.0 0.00 0.00 0.00 61 1031.9
20200922091004 45 240 0.0 0.0 0.00 0.00 0.00 61 1032.2
20200922090459 45 222 0.0 0.9 0.00 0.00 0.00 60 1032.2
20200922085956 45 246 0.0 0.0 0.00 0.00 0.00 61 1032.1
20200922085454 46 245 0.0 0.0 0.00 0.00 0.00 60 1032.3
20200922084950 46 223 0.0 0.0 0.00 0.00 0.00 59 1032.2
20200922084445 46 233 0.0 0.0 0.00 0.00 0.00 60 1032.3
20200922083942 46 241 0.0 0.0 0.00 0.00 0.00 60 1032.2
20200922083436 46 247 0.0 0.0 0.00 0.00 0.00 60 1032.1
20200922082933 46 242 0.0 0.0 0.00 0.00 0.00 59 1032.2
20200922082429 46 225 0.0 0.0 0.00 0.00 0.00 59 1032.1
20200922081923 46 240 0.0 0.0 0.00 0.00 0.00 59 1032.3
20200922081423 46 239 0.0 0.0 0.00 0.00 0.00 60 1032.2
20200922080923 46 253 0.0 0.0 0.00 0.00 0.00 60 1032.1
20200922080420 46 245 0.0 0.0 0.00 0.00 0.00 59 1032.1
20200922075917 46 242 0.0 0.0 0.00 0.00 0.00 60 1032.4
20200922075418 46 250 0.0 0.0 0.00 0.00 0.00 60 1032.2
20200922074911 46 252 0.0 0.0 0.00 0.00 0.00 59 1032.2
20200922074410 46 239 0.0 0.0 0.00 0.00 0.00 59 1032.2
20200922073909 46 244 0.9 0.9 0.00 0.00 0.00 60 1032.2
20200922073400 46 211 0.9 0.9 0.00 0.00 0.00 60 1032.3
20200922072854 46 238 0.0 0.0 0.00 0.00 0.00 59 1032.2
20200922072353 46 234 0.0 0.0 0.00 0.00 0.00 60 1032.3
20200922071847 45 247 0.0 0.0 0.00 0.00 0.00 61 1032.4
20200922071346 46 205 0.9 0.9 0.00 0.00 0.00 60 1032.6
20200922070845 46 235 0.0 0.0 0.00 0.00 0.00 60 1032.3
20200922070342 46 224 0.0 0.9 0.00 0.00 0.00 59 1032.2
20200922065839 46 220 0.0 0.0 0.00 0.00 0.00 60 1032.2
20200922065331 47 241 0.0 0.0 0.00 0.00 0.00 59 1032.2
20200922064830 47 249 0.0 0.0 0.00 0.00 0.00 59 1032.3
20200922064328 47 233 0.0 0.0 0.00 0.00 0.00 58 1031.9
20200922063832 48 227 0.0 0.9 0.00 0.00 0.00 57 1032.2
20200922063329 48 215 0.0 0.0 0.00 0.00 0.00 57 1032.2
20200922062826 48 222 0.0 0.0 0.00 0.00 0.00 57 1032.3
20200922062325 48 211 0.0 0.9 0.00 0.00 0.00 57 1032.2
20200922061819 48 248 0.0 0.0 0.00 0.00 0.00 56 1032.3
20200922061313 49 242 0.0 0.0 0.00 0.00 0.00 55 1032.6
20200922060808 50 246 0.0 0.0 0.00 0.00 0.00 54 1032.6
20200922060307 50 241 0.0 0.0 0.00 0.00 0.00 53 1032.4
20200922055801 49 226 0.0 0.0 0.00 0.00 0.00 54 1032.7
20200922055253 49 243 0.0 0.0 0.00 0.00 0.00 54 1032.4
20200922054750 50 244 0.0 0.0 0.00 0.00 0.00 53 1032.6
20200922054249 50 235 0.0 0.0 0.00 0.00 0.00 53 1032.7
20200922053746 50 235 0.0 0.0 0.00 0.00 0.00 52 1032.7
20200922053245 52 251 0.0 0.0 0.00 0.00 0.00 51 1032.7
20200922052745 53 235 0.0 0.0 0.00 0.00 0.00 49 1032.7
20200922052240 53 239 1.7 1.7 0.00 0.00 0.00 48 1032.6
20200922051733 53 241 0.0 0.0 0.00 0.00 0.00 48 1032.6
20200922051233 53 216 0.0 0.9 0.00 0.00 0.00 47 1032.6
20200922050728 55 250 0.9 0.9 0.00 0.00 0.00 46 1032.6
20200922050228 55 178 0.9 0.9 0.00 0.00 0.00 45 1032.4
20200922045724 53 240 0.0 0.0 0.00 0.00 0.00 47 1032.4
20200922045221 55 243 0.0 0.0 0.00 0.00 0.00 46 1032.3
20200922044719 56 242 0.0 0.0 0.00 0.00 0.00 45 1032.7
20200922044216 57 217 0.0 0.9 0.00 0.00 0.00 42 1032.4
20200922043718 56 181 0.9 0.9 0.00 0.00 0.00 43 1032.4
20200922043215 55 231 0.0 0.0 0.00 0.00 0.00 44 1032.4
20200922042712 56 235 0.0 0.0 0.00 0.00 0.00 43 1032.7
20200922042208 55 227 0.0 0.0 0.00 0.00 0.00 44 1032.7
20200922041704 55 240 0.0 0.0 0.00 0.00 0.00 44 1032.4
20200922041201 56 240 0.0 0.0 0.00 0.00 0.00 43 1032.4
20200922040659 56 230 0.0 0.0 0.00 0.00 0.00 43 1032.8
20200922040159 54 269 0.9 0.9 0.00 0.00 0.00 45 1032.2
20200922035654 55 238 0.0 0.0 0.00 0.00 0.00 45 1032.6
20200922035152 55 234 0.0 0.0 0.00 0.00 0.00 45 1032.9
20200922034651 55 225 0.0 0.0 0.00 0.00 0.00 46 1032.7
20200922034144 54 223 0.0 0.9 0.00 0.00 0.00 46 1032.6
20200922033641 55 253 0.0 0.0 0.00 0.00 0.00 45 1032.6
20200922033139 56 240 0.0 0.0 0.00 0.00 0.00 44 1032.8
20200922032637 57 251 0.0 0.9 0.00 0.00 0.00 42 1032.7
20200922032135 57 227 0.0 0.0 0.00 0.00 0.00 42 1033.2
20200922031631 55 150 1.7 1.7 0.00 0.00 0.00 43 1033.1
20200922031127 54 242 0.0 0.0 0.00 0.00 0.00 46 1032.8
20200922030624 54 244 0.0 0.0 0.00 0.00 0.00 45 1032.7
20200922030121 55 216 0.9 0.9 0.00 0.00 0.00 45 1032.8
20200922025620 55 247 0.0 0.0 0.00 0.00 0.00 45 1032.6
20200922025118 55 227 0.0 0.0 0.00 0.00 0.00 44 1032.7
20200922024617 56 214 0.9 0.9 0.00 0.00 0.00 44 1032.4
20200922024116 56 241 0.0 0.0 0.00 0.00 0.00 44 1032.9
20200922023612 56 263 0.0 0.0 0.00 0.00 0.00 44 1032.4
20200922023103 57 264 0.9 0.9 0.00 0.00 0.00 43 1032.7
20200922022558 56 230 0.0 0.9 0.00 0.00 0.00 43 1032.6
20200922022058 57 260 0.0 0.0 0.00 0.00 0.00 43 1032.6
20200922021555 57 254 0.0 0.0 0.00 0.00 0.00 42 1032.4
20200922021054 57 242 0.0 0.0 0.00 0.00 0.00 42 1032.3
20200922020554 58 240 0.0 0.0 0.00 0.00 0.00 40 1032.3
20200922020052 58 257 0.0 0.0 0.00 0.00 0.00 40 1032.3
20200922015550 59 208 0.9 0.9 0.00 0.00 0.00 40 1032.3
20200922015046 59 227 0.0 0.0 0.00 0.00 0.00 39 1032.2
20200922014545 60 233 0.0 0.0 0.00 0.00 0.00 38 1032.1
20200922014043 61 201 0.9 0.9 0.00 0.00 0.00 37 1032.4
20200922013534 61 221 0.0 0.9 0.00 0.00 0.00 37 1032.2
20200922013033 60 127 1.7 1.7 0.00 0.00 0.00 37 1032.4
20200922012522 60 216 0.0 0.0 0.00 0.00 0.00 37 1032.3
20200922012020 61 240 0.0 0.0 0.00 0.00 0.00 36 1032.1
20200922011516 62 240 0.0 0.0 0.00 0.00 0.00 36 1032.1
20200922011009 64 243 0.0 0.0 0.00 0.00 0.00 34 1032.2
20200922010506 64 219 0.9 0.9 0.00 0.00 0.00 33 1031.9
20200922005958 65 216 0.9 0.9 0.00 0.00 0.00 33 1032.2
20200922005456 65 237 0.0 0.0 0.00 0.00 0.00 32 1032.1
20200922004954 65 240 0.9 0.9 0.00 0.00 0.00 32 1031.9
20200922004450 65 226 0.9 0.9 0.00 0.00 0.00 32 1031.7
20200922003947 66 225 0.9 0.9 0.00 0.00 0.00 31 1031.8
20200922003442 66 224 0.0 0.9 0.00 0.00 0.00 31 1031.8
20200922002938 67 245 0.0 0.0 0.00 0.00 0.00 31 1031.7
20200922002438 68 188 1.7 2.6 0.00 0.00 0.00 29 1031.9
20200922001930 68 169 1.7 1.7 0.00 0.00 0.00 30 1031.5
20200922001425 68 247 0.0 0.0 0.00 0.00 0.00 29 1031.7
20200922000926 68 252 0.0 0.9 0.00 0.00 0.00 29 1031.8
20200922000424 68 252 0.9 0.9 0.00 0.00 0.00 29 1031.5
20200921235924 69 259 0.0 0.9 0.00 0.00 0.00 29 1031.5
20200921235423 68 244 1.7 2.6 0.00 0.00 0.00 28 1031.4
20200921234917 68 278 1.7 2.6 0.00 0.00 0.00 29 1031.8
20200921234418 68 277 1.7 1.7 0.00 0.00 0.00 28 1031.7
20200921233912 69 255 2.6 2.6 0.00 0.00 0.00 28 1031.8
20200921233404 69 258 3.5 4.3 0.00 0.00 0.00 28 1031.7
20200921232902 69 271 2.6 2.6 0.00 0.00 0.00 28 1031.8
20200921232401 70 259 3.5 4.3 0.00 0.00 0.00 27 1031.5
20200921231858 71 278 5.2 6.1 0.00 0.00 0.00 26 1031.3
20200921231353 71 281 1.7 1.7 0.00 0.00 0.00 26 1031.4
20200921230851 72 266 3.5 4.3 0.00 0.00 0.00 25 1031.4
20200921230351 72 242 1.7 1.7 0.00 0.00 0.00 26 1031.5
20200921225850 73 250 4.3 5.2 0.00 0.00 0.00 26 1031.3
20200921225346 72 247 0.9 1.7 0.00 0.00 0.00 26 1031.3
20200921224845 73 32 3.5 5.2 0.00 0.00 0.00 25 1031.4
20200921224352 71 289 2.6 2.6 0.00 0.00 0.00 26 1031.5
20200921223838 70 255 1.7 2.6 0.00 0.00 0.00 27 1031.2
20200921223333 71 245 2.6 2.6 0.00 0.00 0.00 27 1031.2
20200921222832 71 249 1.7 1.7 0.00 0.00 0.00 27 1031.4
20200921222326 71 250 0.0 0.0 0.00 0.00 0.00 26 1031.7
20200921221826 71 255 0.9 0.9 0.00 0.00 0.00 26 1031.4
20200921221322 71 270 0.0 0.9 0.00 0.00 0.00 26 1031.4
20200921220818 71 277 1.7 2.6 0.00 0.00 0.00 26 1031.5
20200921220313 72 249 0.0 0.0 0.00 0.00 0.00 25 1031.5
20200921215811 71 306 0.9 0.9 0.00 0.00 0.00 25 1031.7
20200921215311 71 43 0.9 1.7 0.00 0.00 0.00 25 1031.4
20200921214809 71 317 0.9 1.7 0.00 0.00 0.00 26 1031.5
20200921214306 72 250 1.7 2.6 0.00 0.00 0.00 25 1031.3
20200921213806 71 294 4.3 5.2 0.00 0.00 0.00 25 1031.5
20200921213304 71 358 7.0 9.6 0.00 0.00 0.00 25 1031.8
20200921212758 71 252 7.0 7.8 0.00 0.00 0.00 27 1031.7
20200921212258 71 295 5.2 6.1 0.00 0.00 0.00 27 1031.7
20200921211751 71 263 3.5 4.3 0.00 0.00 0.00 27 1031.5
20200921211245 69 284 9.6 13.0 0.00 0.00 0.00 28 1031.7
20200921210743 69 231 5.2 6.1 0.00 0.00 0.00 28 1031.8